This demonstration page uses our WeatherBlox Daily Observations layout. Learn more.

Left ArrowRight Arrow

Hourly Observations for April 19, 2020

Temp ( °F °C ) Dew Point ( °F °C ) Humidity (%) Winds ( mph kmh ) Pressure ( in mb ) Visibility ( mi km ) Precip ( " mm )
12:53 am 00:53 Cloudy 60 15.6 46 7.8 60 60 SW 8 13 30.00 1016 10 16 0.00 0.00
1:53 am 01:53 Cloudy 59 15 46 7.8 62 62 SW 6 9 30.00 1016 10 16 0.00 0.00
2:53 am 02:53 Cloudy 57 13.9 45 7.2 64 64 S 10 17 29.99 1016 10 16 0.00 0.00
3:53 am 03:53 Cloudy 56 13.3 45 7.2 67 67 SSW 8 13 30.00 1016 10 16 0.00 0.00
4:53 am 04:53 Cloudy 55 12.8 45 7.2 69 69 SE 6 9 30.01 1016 10 16 0.00 0.00
5:53 am 05:53 Cloudy 54 12.2 45 7.2 72 72 SSE 8 13 30.02 1017 10 16 0.00 0.00
6:53 am 06:53 Mostly Cloudy 53 11.7 45 7.2 74 74 SSE 3 6 30.04 1017 10 16 0.00 0.00
7:53 am 07:53 Cloudy 54 12.2 44 6.7 69 69 S 5 7 30.06 1018 10 16 0.00 0.00
8:53 am 08:53 Cloudy 54 12.2 45 7.2 72 72 SSE 6 9 30.07 1018 10 16 0.00 0.00
9:53 am 09:53 Cloudy 56 13.3 45 7.2 67 67 SE 7 11 30.08 1019 10 16 0.00 0.00
10:01 am 10:01 Cloudy 56 13.3 46 7.8 70 70 SE 6 9 30.09 1019 10 16 0.00 0.00
10:53 am 10:53 Cloudy 57 13.9 45 7.2 64 64 VRB 3 6 30.09 1019 10 16 0.00 0.00
11:30 am 11:30 Partly Cloudy 60 15.6 48 8.9 65 65 S 6 9 30.09 1019 10 16 0.00 0.00
11:53 am 11:53 Mostly Cloudy 60 15.6 47 8.3 62 62 ESE 5 7 30.07 1018 10 16 0.00 0.00
12:00 pm 12:00 Mostly Cloudy 61 16.1 48 8.9 63 63 VRB 6 9 30.08 1018 10 16 0.00 0.00
12:53 pm 12:53 Mostly Cloudy 63 17.2 48 8.9 58 58 VRB 3 6 30.06 1018 10 16 0.00 0.00
1:53 pm 13:53 Sunny 66 18.9 48 8.9 52 52 Calm 30.04 1017 10 16 0.00 0.00
2:53 pm 14:53 Partly Cloudy 66 18.9 47 8.3 50 50 Calm 30.02 1017 10 16 0.00 0.00
3:53 pm 15:53 Sunny 68 20 45 7.2 44 44 Calm 30.00 1016 10 16 0.00 0.00
4:53 pm 16:53 Sunny 68 20 43 6.1 40 40 VRB 3 6 29.97 1015 10 16 0.00 0.00
5:53 pm 17:53 Sunny 68 20 45 7.2 44 44 E 6 9 29.96 1015 10 16 0.00 0.00
6:53 pm 18:53 Sunny 67 19.4 44 6.7 44 44 SSE 5 7 29.96 1014 10 16 0.00 0.00
7:53 pm 19:53 Sunny 63 17.2 45 7.2 52 52 Calm 29.96 1015 10 16 0.00 0.00
8:53 pm 20:53 Clear 61 16.1 46 7.8 58 58 Calm 29.98 1015 10 16 0.00 0.00
9:53 pm 21:53 Clear 58 14.4 47 8.3 67 67 Calm 29.99 1016 10 16 0.00 0.00
10:53 pm 22:53 Clear 56 13.3 46 7.8 70 70 N 3 6 30.00 1016 10 16 0.00 0.00
11:53 pm 23:53 Clear 53 11.7 46 7.8 77 77 NNW 3 6 30.00 1016 10 16 0.00 0.00

Powered by AerisWeather